Regional Weather Roundup
Issued by NWS

Home | Current Version | Previous Version | Text Only | Print | Product List | Glossary On
Versions: 1 2 3 4 5 6 7 8 9 10 11 12 13 14 15 16 17 18 19 20 21 22 23 24 25 26 27 28 29 30 31 32 33 34 35 36 37 38 39 40 41 42 43 44 45 46 47 48 49 50
000
ASUS43 KLSX 181607
RWRMO

WEATHER SUMMARY FOR MISSOURI
NATIONAL WEATHER SERVICE SPRINGFIELD MO
1100 AM CDT THU SEP 18 2014

NOTE: "FAIR" INDICATES FEW OR NO CLOUDS BELOW 12,000 FEET WITH NO
       SIGNIFICANT WEATHER AND/OR OBSTRUCTIONS TO VISIBILITY.
       CURRENT SKY AND/OR WEATHER CONDITIONS ARE NOT AVAILABLE FOR
       CHILLICOTHE AND FARMINGTON.

MOZ001>031-035>038-043-044-053-054-181700-
...NORTHERN AND WESTERN MISSOURI...

CITY           SKY/WX    TMP DP  RH WIND       PRES   REMARKS
KANSAS CTY INT CLOUDY    62  59  90 E13       30.04S
KANSAS C DTWN  CLOUDY    65  60  84 E8        30.03R
LEE`S SUMMIT   CLOUDY    63  60  90 E8        30.04S
ST JOSEPH      CLOUDY    61  58  90 SE12      30.06R
CHILLICOTHE      N/A     63  56  78 VRB5      30.08S
KIRKSVILLE     PTSUNNY   63  57  81 E10       30.10S

$$
MOZ066>068-077>081-088>096-101>105-181700-
...SOUTHWEST MISSOURI...

CITY           SKY/WX    TMP DP  RH WIND       PRES   REMARKS
SPRINGFIELD    CLOUDY    69  63  81 NE9       29.99R
JOPLIN         CLOUDY    67  63  87 NE9       29.96F

$$
MOZ032>034-039>042-045>050-055>058-069>072-181700-
...CENTRAL MISSOURI...

CITY           SKY/WX    TMP DP  RH WIND       PRES   REMARKS
COLUMBIA       CLOUDY    63  61  93 E9        30.07S FOG
JEFFERSON CITY CLOUDY    64  59  83 E8        30.06S
ROLLA          CLOUDY    61  58  90 E10       30.05S
SEDALIA        CLOUDY    62  60  93 E10       30.05S FOG
OSAGE BEACH    CLOUDY    64  59  82 E8        30.04S

$$
MOZ051-052-059>065-181700-
...EAST CENTRAL MISSOURI...

CITY           SKY/WX    TMP DP  RH WIND       PRES   REMARKS
ST LOUIS INTL  CLOUDY    66  55  67 E7        30.09S
SPIRIT OF STL  CLOUDY    66  56  70 E9        30.07S
ST CHARLES     CLOUDY    65  56  72 E8        30.09R

$$
MOZ072>076-082>087-097>100-106>115-181700-
...SOUTH CENTRAL AND SOUTHEAST MISSOURI...

CITY           SKY/WX    TMP DP  RH WIND       PRES   REMARKS
CAPE GIRARDEAU CLOUDY    68  59  73 NE6       30.04S
FARMINGTON     CLOUDY    66  57  72 E9        30.09R
POPLAR BLUFF   CLOUDY    68  59  73 NE7       30.03R
WEST PLAINS    CLOUDY    61  59  93 SE6       30.05R FOG

$$



USA.gov is the U.S. government's official web portal to all federal, state and local government web resources and services.